{"data":{"norad_id":58093,"epoch":"2026-05-25T00:52:40.118016Z","epoch_age_seconds":62023,"freshness":"FRESH","line1":"1 58093U 23160U   26145.03657544 -.00000084  00000+0  64578-5 0  9996","line2":"2 58093  43.0047   6.5741 0000872 271.3848  88.6904 15.27591330144626","mean_motion":15.2759133,"eccentricity":8.72e-5,"inclination_deg":43.0047,"raan_deg":6.5741,"arg_perigee_deg":271.3848,"mean_anomaly_deg":88.6904,"bstar":6.4578e-6,"rev_number":14462,"period_min":94.266049546118,"perigee_km":482.41687768416,"apogee_km":483.61346262263,"semimajor_km":6861.1521701534,"source":"CELESTRAK","updated_at":"2026-05-25T13:38:18.524950Z"}}